WGS F8 (USA 272)

Last updated on Tue Sep 16 2025 00:02:49 GMT+0000 (Coordinated Universal Time)

1 41879U 16075A 25258.49570196 -.00000219 00000+0 00000+0 0 9992 2 41879 0.0036 173.0473 0000187 7.6791 142.2343 1.00271049 32065
UTC large
Height (km)
Speed (km/s)
/
Latitude / Longitude
Inclination (degrees)
Orbital Period (minutes)
Azimuth
Elevation
Range (km)
Doppler Factor

Next 0 passes for location: London (51.5072 / 0.1276)

Sorry there are no passes over London.